M I D A S
Marine Information and Data Acquisition System
Tripno 584 of the Zeeleeuw from 2003-09-05 06:59:14 to 2003-09-05 13:47:11
Back to CruiseResearch ActivitiesStationsMapUnderway DataData graphs

EquipmentUnitsComments
TimeDGPSUTC
LatitudeDGPSDM.mWGS84
LongitudeDGPSDM.mWGS84
SpeedMeteo Stationm/sRelative wind speed
DirectionMeteo StationdegRelative wind direction
TemperatureMeteo Stationdeg CelciusAir temperature
PressureMeteo StationPaAtmospheric pressure
HumidityMeteo Station%Relative humidity
Missing or incorrect values are displayed as -999
Metereological data collected by the RV Zeeleeuw from 2003-09-05 06:59:14 to 2003-09-05 13:47:11
Time Latitude Longitude Speed Direction Temperature Pressure Humidity
2003-09-05 07:00 51°14.44 2°54.93 0.8 241 14.7 102010 72
2003-09-05 07:01 51°14.46 2°54.73 3.3 282 14.8 102000 72
2003-09-05 07:02 51°14.45 2°54.59 3.4 252 14.8 102000 72
2003-09-05 07:03 51°14.45 2°54.5 4.4 231 14.8 102000 71
2003-09-05 07:04 51°14.47 2°54.43 4.9 246 14.8 102000 72
2003-09-05 07:05 51°14.47 2°54.37 5.2 243 14.8 102000 71
2003-09-05 07:06 51°14.47 2°54.32 4 252 14.9 102000 71
2003-09-05 07:07 51°14.44 2°54.16 3.8 293 14.9 101990 70
2003-09-05 07:08 51°14.35 2°53.88 6.6 43 15 101990 70
2003-09-05 07:09 51°14.25 2°53.59 7 320 15.1 101990 70
2003-09-05 07:10 51°14.15 2°53.31 7.8 314 15.3 101980 68
2003-09-05 07:11 51°14.05 2°53.01 7.1 41 15.4 101990 69
2003-09-05 07:12 51°13.95 2°52.72 8.8 226 15.5 101980 67
2003-09-05 07:13 51°13.85 2°52.43 7.8 308 15.5 101980 66
2003-09-05 07:14 51°13.74 2°52.13 8.2 313 15.6 101980 66
2003-09-05 07:15 51°13.64 2°51.85 6.3 312 15.6 101980 66
2003-09-05 07:16 51°13.54 2°51.55 6.4 314 15.6 101970 66
2003-09-05 07:17 51°13.44 2°51.27 7.8 319 15.6 101970 67
2003-09-05 07:18 51°13.34 2°50.98 7.5 305 15.7 101970 67
2003-09-05 07:19 51°13.24 2°50.68 6.6 312 15.7 101970 70
2003-09-05 07:20 51°13.13 2°50.39 7.2 310 15.7 101970 70
2003-09-05 07:21 51°13.03 2°50.1 7.2 314 15.6 101970 70
2003-09-05 07:22 51°12.93 2°49.8 8.1 310 15.5 101980 69
2003-09-05 07:23 51°12.83 2°49.51 8.4 317 15.5 101980 69
2003-09-05 07:24 51°12.73 2°49.22 8.2 307 15.4 101980 70
2003-09-05 07:25 51°12.62 2°48.93 8.5 306 15.4 101980 70
2003-09-05 07:26 51°12.52 2°48.64 8 232 15.3 101980 70
2003-09-05 07:27 51°12.42 2°48.35 7.2 312 15.3 101980 70
2003-09-05 07:28 51°12.32 2°48.06 7.6 315 15.3 101980 71
2003-09-05 07:29 51°12.22 2°47.76 7.7 316 15.3 101980 71
2003-09-05 07:30 51°12.11 2°47.47 7.5 309 15.3 101990 71
2003-09-05 07:31 51°12.01 2°47.18 7 313 15.3 101980 71
2003-09-05 07:32 51°11.91 2°46.89 6.5 310 15.3 101980 70
2003-09-05 07:33 51°11.81 2°46.6 6.6 315 15.4 101990 70
2003-09-05 07:34 51°11.72 2°46.3 7.3 42 15.5 101980 70
2003-09-05 07:35 51°11.62 2°46.01 6.8 309 15.5 101990 71
2003-09-05 07:36 51°11.52 2°45.71 7.7 314 15.6 101980 70
2003-09-05 07:37 51°11.42 2°45.42 7.8 316 15.6 101980 70
2003-09-05 07:38 51°11.32 2°45.12 7.6 314 15.5 101980 70
2003-09-05 07:39 51°11.22 2°44.83 7.5 318 15.5 101990 70
2003-09-05 07:40 51°11.12 2°44.53 7.8 313 15.5 101990 70
2003-09-05 07:41 51°11.01 2°44.24 7.6 320 15.5 101990 70
2003-09-05 07:42 51°10.91 2°43.94 7.2 319 15.5 101990 71
2003-09-05 07:43 51°10.81 2°43.64 6.9 42 15.5 101980 71
2003-09-05 07:44 51°10.81 2°43.3 3.3 333 15.5 101990 71
2003-09-05 07:45 51°10.85 2°42.96 3.2 228 15.5 101990 72
2003-09-05 07:46 51°10.89 2°42.62 3.7 321 15.6 101990 71
2003-09-05 07:47 51°10.93 2°42.29 3.8 324 15.7 102000 71
2003-09-05 07:48 51°10.98 2°41.95 4 321 15.8 101990 70
2003-09-05 07:49 51°10.97 2°41.62 5.9 43 15.8 101990 69
2003-09-05 07:50 51°10.86 2°41.35 7.2 320 15.9 101970 68
2003-09-05 07:51 51°10.74 2°41.07 7 323 15.9 101970 68
2003-09-05 07:52 51°10.61 2°40.82 7.7 325 16 101970 68
2003-09-05 07:53 51°10.47 2°40.57 7.9 320 16.1 101970 68
2003-09-05 07:54 51°10.33 2°40.32 7.8 323 16.2 101970 68
2003-09-05 07:55 51°10.19 2°40.07 8.4 325 16.3 101970 66
2003-09-05 07:56 51°10.05 2°39.82 8.9 326 16.4 101960 64
2003-09-05 07:57 51°9.91 2°39.57 9 325 16.5 101960 63
2003-09-05 07:58 51°9.77 2°39.31 7.2 324 16.5 101970 64
2003-09-05 07:59 51°9.74 2°38.99 2.8 320 16.5 101980 65
2003-09-05 08:00 51°9.88 2°38.74 2.4 54 16.4 101990 63
2003-09-05 08:01 51°10.1 2°38.61 2.8 59 16.4 101990 66
2003-09-05 08:02 51°10.29 2°38.42 2 27 16.3 101990 66
2003-09-05 08:03 51°10.44 2°38.18 4.8 308 16.3 101990 68
2003-09-05 08:04 51°10.37 2°37.9 9.6 323 16.4 101970 66
2003-09-05 08:05 51°10.21 2°37.68 9.4 323 16.4 101950 65
2003-09-05 08:06 51°10.05 2°37.45 10.3 326 16.5 101960 65
2003-09-05 08:07 51°9.9 2°37.22 10 320 16.6 101970 63
2003-09-05 08:08 51°9.74 2°36.99 10.2 330 16.6 101970 63
2003-09-05 08:09 51°9.59 2°36.76 9.4 326 16.7 101970 64
2003-09-05 08:10 51°9.44 2°36.52 10.3 324 16.7 101970 63
2003-09-05 08:11 51°9.29 2°36.3 8.7 318 16.7 101960 64
2003-09-05 08:12 51°9.24 2°36.06 3.4 257 16.7 101980 64
2003-09-05 08:13 51°9.28 2°35.93 3.1 210 16.6 101980 62
2003-09-05 08:14 51°9.32 2°35.84 3.1 210 16.5 101970 62
2003-09-05 08:15 51°9.34 2°35.77 4.2 229 16.6 101970 64
2003-09-05 08:16 51°9.35 2°35.72 5 240 16.6 101960 64
2003-09-05 08:17 51°9.36 2°35.68 4.5 249 16.6 101960 64
2003-09-05 08:18 51°9.36 2°35.64 3.7 254 16.5 101960 63
2003-09-05 08:19 51°9.35 2°35.6 4.1 252 16.6 101960 63
2003-09-05 08:20 51°9.35 2°35.56 5.5 245 16.6 101950 63
2003-09-05 08:21 51°9.35 2°35.53 4.9 234 16.6 101950 62
2003-09-05 08:22 51°9.36 2°35.5 4.9 221 16.6 101940 63
2003-09-05 08:23 51°9.38 2°35.47 3.7 203 16.7 101940 63
2003-09-05 08:24 51°9.4 2°35.45 2.3 194 16.7 101940 63
2003-09-05 08:25 51°9.42 2°35.44 4.7 166 16.9 101950 65
2003-09-05 08:26 51°9.44 2°35.43 4.9 151 16.8 101940 62
2003-09-05 08:27 51°9.47 2°35.43 4.6 142 16.8 101940 63
2003-09-05 08:28 51°9.5 2°35.44 5.5 128 16.8 101940 61
2003-09-05 08:29 51°9.53 2°35.45 5.4 121 16.8 101940 62
2003-09-05 08:30 51°9.55 2°35.47 4.6 110 16.8 101940 61
2003-09-05 08:31 51°9.58 2°35.49 5.3 101 16.9 101940 62
2003-09-05 08:32 51°9.6 2°35.52 5.5 99 17 101940 62
2003-09-05 08:33 51°9.63 2°35.55 5.1 95 17 101940 62
2003-09-05 08:34 51°9.66 2°35.58 5.5 95 17 101940 63
2003-09-05 08:35 51°9.73 2°35.63 5.5 73 17 101940 63
2003-09-05 08:36 51°9.94 2°35.68 6.6 54 16.9 101940 61
2003-09-05 08:37 51°10.17 2°35.73 6.8 50 16.9 101940 63
2003-09-05 08:38 51°10.4 2°35.82 8.7 40 16.8 101930 63
2003-09-05 08:39 51°10.62 2°35.95 8.1 33 16.8 101950 63
2003-09-05 08:40 51°10.82 2°36.14 9.8 35 16.8 101940 64
2003-09-05 08:41 51°11 2°36.39 9.2 36 16.8 101940 62
2003-09-05 08:42 51°11.17 2°36.65 9.4 36 16.9 101940 62
2003-09-05 08:43 51°11.33 2°36.93 9.1 28 17 101940 64
2003-09-05 08:44 51°11.49 2°37.2 9.9 32 17 101940 60
2003-09-05 08:45 51°11.65 2°37.47 9.5 30 17.1 101950 61
2003-09-05 08:46 51°11.82 2°37.74 8.1 27 17.2 101950 59
2003-09-05 08:47 51°11.87 2°37.93 6.1 1 17.3 101960 61
2003-09-05 08:48 51°11.82 2°38.01 5.7 324 17.4 101960 61
2003-09-05 08:49 51°11.79 2°37.9 0.7 216 17.6 101970 61
2003-09-05 08:50 51°11.85 2°37.85 2.6 141 17.7 101970 60
2003-09-05 08:51 51°11.86 2°37.86 3 124 17.7 101960 61
2003-09-05 08:52 51°11.87 2°37.86 3.4 128 17.7 101960 61
2003-09-05 08:53 51°11.88 2°37.86 3.8 119 17.6 101960 59
2003-09-05 08:54 51°11.89 2°37.87 3.5 125 17.7 101960 60
2003-09-05 08:55 51°11.9 2°37.87 3.5 130 17.6 101960 60
2003-09-05 08:56 51°11.91 2°37.88 3.2 121 17.6 101960 59
2003-09-05 08:57 51°11.93 2°37.89 3.7 126 17.6 101950 60
2003-09-05 08:58 51°11.94 2°37.89 3.4 116 17.7 101960 59
2003-09-05 08:59 51°11.95 2°37.9 3.5 114 17.8 101950 62
2003-09-05 09:00 51°11.97 2°37.9 3.2 112 17.8 101950 60
2003-09-05 09:01 51°11.98 2°37.91 3.8 109 17.8 101950 60
2003-09-05 09:02 51°11.99 2°37.91 3.9 104 17.8 101950 57
2003-09-05 09:03 51°12.01 2°37.92 3.3 118 17.9 101950 58
2003-09-05 09:04 51°12.04 2°37.94 5.5 65 18 101950 60
2003-09-05 09:05 51°12.19 2°38.06 8.1 35 17.9 101930 58
2003-09-05 09:06 51°12.4 2°38.21 8.5 36 17.8 101930 60
2003-09-05 09:07 51°12.61 2°38.36 8.5 34 17.6 101930 60
2003-09-05 09:08 51°12.82 2°38.52 7.8 37 17.6 101930 59
2003-09-05 09:09 51°13.03 2°38.67 8.4 40 17.6 101920 59
2003-09-05 09:10 51°13.24 2°38.83 8.2 36 17.6 101920 61
2003-09-05 09:11 51°13.45 2°38.99 8.5 40 17.6 101920 61
2003-09-05 09:12 51°13.66 2°39.14 8.7 39 17.6 101930 61
2003-09-05 09:13 51°13.89 2°39.31 8.4 35 17.6 101920 60
2003-09-05 09:14 51°14.11 2°39.36 6.5 41 17.7 101930 62
2003-09-05 09:15 51°14.29 2°39.16 5.3 32 17.7 101930 63
2003-09-05 09:16 51°14.42 2°38.87 4.1 20 17.6 101940 64
2003-09-05 09:17 51°14.4 2°38.54 5.1 344 17.7 101940 64
2003-09-05 09:18 51°14.32 2°38.21 4.7 339 17.8 101940 63
2003-09-05 09:19 51°14.24 2°37.88 4.9 348 17.9 101940 63
2003-09-05 09:20 51°14.17 2°37.55 4.9 336 18 101940 60
2003-09-05 09:21 51°14.1 2°37.22 4.8 339 18.1 101940 60
2003-09-05 09:22 51°14.03 2°36.89 4.8 345 18.2 101940 59
2003-09-05 09:23 51°13.96 2°36.56 4.4 338 18.3 101940 60
2003-09-05 09:24 51°13.89 2°36.22 3.9 346 18.3 101940 60
2003-09-05 09:25 51°13.83 2°35.89 5 335 18.4 101930 60
2003-09-05 09:26 51°13.69 2°35.63 6.1 332 18.4 101920 59
2003-09-05 09:27 51°13.53 2°35.38 6.4 332 18.5 101920 59
2003-09-05 09:28 51°13.38 2°35.14 6.1 326 18.5 101910 58
2003-09-05 09:29 51°13.22 2°34.9 6.5 326 18.5 101910 58
2003-09-05 09:30 51°13.05 2°34.67 6.5 330 18.5 101900 58
2003-09-05 09:31 51°12.91 2°34.42 3.5 322 18.5 101900 57
2003-09-05 09:32 51°12.86 2°34.08 4.4 332 18.6 101910 59
2003-09-05 09:33 51°12.77 2°33.77 4.2 321 18.6 101900 57
2003-09-05 09:34 51°12.67 2°33.45 4.3 338 18.7 101900 57
2003-09-05 09:35 51°12.58 2°33.13 4.6 327 18.7 101900 57
2003-09-05 09:36 51°12.5 2°32.81 4.4 319 18.7 101900 57
2003-09-05 09:37 51°12.42 2°32.48 4.9 324 18.8 101900 57
2003-09-05 09:38 51°12.34 2°32.15 3.7 321 18.8 101890 57
2003-09-05 09:39 51°12.26 2°31.82 3.9 326 18.8 101900 57
2003-09-05 09:40 51°12.18 2°31.49 3.7 331 18.9 101900 56
2003-09-05 09:41 51°12.1 2°31.16 4.1 321 18.9 101900 57
2003-09-05 09:42 51°12.02 2°30.83 3.9 322 19 101900 57
2003-09-05 09:43 51°11.94 2°30.5 4.2 317 19 101890 57
2003-09-05 09:44 51°11.86 2°30.18 3.8 314 18.9 101890 57
2003-09-05 09:45 51°11.78 2°29.85 5.2 320 18.9 101890 58
2003-09-05 09:46 51°11.7 2°29.52 3.8 42 18.9 101900 58
2003-09-05 09:47 51°11.62 2°29.19 3.9 323 18.9 101900 59
2003-09-05 09:48 51°11.56 2°28.85 4.3 329 18.9 101890 59
2003-09-05 09:49 51°11.5 2°28.51 3.7 334 19 101890 59
2003-09-05 09:50 51°11.44 2°28.16 4 333 19 101890 60
2003-09-05 09:51 51°11.38 2°27.81 4.1 337 19 101890 59
2003-09-05 09:52 51°11.32 2°27.46 4.4 329 19 101890 59
2003-09-05 09:53 51°11.26 2°27.11 3.6 339 19 101900 59
2003-09-05 09:54 51°11.2 2°26.76 3.3 334 19 101890 60
2003-09-05 09:55 51°11.15 2°26.42 3.8 335 19.1 101890 60
2003-09-05 09:56 51°11.1 2°26.06 3 335 19.1 101890 60
2003-09-05 09:57 51°11.07 2°25.71 3.1 350 19 101890 60
2003-09-05 09:58 51°11.05 2°25.35 3.3 9 19.1 101880 61
2003-09-05 09:59 51°11.13 2°25.01 3.7 47 19 101880 61
2003-09-05 10:00 51°11.32 2°24.83 8.1 55 18.7 101880 62
2003-09-05 10:01 51°11.55 2°24.84 9.5 48 18.4 101860 62
2003-09-05 10:02 51°11.79 2°24.89 9.1 41 18.1 101860 62
2003-09-05 10:03 51°12.02 2°24.96 9.4 43 18 101860 64
2003-09-05 10:04 51°12.25 2°25.03 9.6 43 18 101860 64
2003-09-05 10:05 51°12.48 2°25.09 9.5 47 17.9 101850 63
2003-09-05 10:06 51°12.7 2°25.15 9.2 45 18 101860 64
2003-09-05 10:07 51°12.92 2°25.21 8.7 57 17.9 101850 63
2003-09-05 10:08 51°13.04 2°25.28 6.6 56 18 101860 64
2003-09-05 10:09 51°13.1 2°25.35 6 47 18 101870 64
2003-09-05 10:10 51°13.13 2°25.4 6 38 18 101860 64
2003-09-05 10:11 51°13.14 2°25.44 5.8 40 18 101870 60
2003-09-05 10:12 51°13.16 2°25.47 5.7 32 18 101870 62
2003-09-05 10:13 51°13.17 2°25.5 5.7 28 18.1 101870 61
2003-09-05 10:14 51°13.18 2°25.53 5.7 38 18.2 101860 60
2003-09-05 10:15 51°13.2 2°25.56 6 31 18.2 101860 61
2003-09-05 10:16 51°13.21 2°25.59 6.1 32 18.2 101850 62
2003-09-05 10:17 51°13.23 2°25.63 5.1 36 18.2 101860 61
2003-09-05 10:18 51°13.24 2°25.66 6.2 26 18.2 101860 62
2003-09-05 10:19 51°13.26 2°25.7 5.7 30 18.3 101850 61
2003-09-05 10:20 51°13.27 2°25.73 5.8 27 18.4 101860 60
2003-09-05 10:21 51°13.29 2°25.77 5.6 30 18.5 101860 61
2003-09-05 10:22 51°13.3 2°25.8 4.8 29 18.5 101850 60
2003-09-05 10:23 51°13.31 2°25.83 5.7 14 18.6 101850 62
2003-09-05 10:24 51°13.32 2°25.86 4.9 20 18.7 101850 61
2003-09-05 10:25 51°13.34 2°25.89 5 18 18.8 101850 61
2003-09-05 10:26 51°13.35 2°25.92 5.4 19 18.9 101840 61
2003-09-05 10:27 51°13.36 2°25.95 5.1 18 18.8 101840 59
2003-09-05 10:28 51°13.37 2°25.97 5 20 18.9 101840 59
2003-09-05 10:29 51°13.38 2°26 5.2 15 18.9 101840 59
2003-09-05 10:30 51°13.39 2°26.03 5.5 17 19 101840 59
2003-09-05 10:31 51°13.41 2°26.1 8.6 9 19.1 101840 61
2003-09-05 10:32 51°13.46 2°26.39 11.2 15 19.1 101820 60
2003-09-05 10:33 51°13.55 2°26.73 11.6 14 19 101820 61
2003-09-05 10:34 51°13.64 2°27.05 10.8 15 19 101810 61
2003-09-05 10:35 51°13.75 2°27.36 10.8 21 19 101820 59
2003-09-05 10:36 51°13.87 2°27.67 11.9 22 19 101810 59
2003-09-05 10:37 51°14.01 2°27.98 11.2 18 19.1 101820 61
2003-09-05 10:38 51°14.14 2°28.26 11.7 18 19.1 101820 63
2003-09-05 10:39 51°14.28 2°28.55 11.4 15 19 101810 62
2003-09-05 10:40 51°14.42 2°28.84 12.3 22 19 101820 63
2003-09-05 10:41 51°14.56 2°29.12 11.8 20 19 101810 62
2003-09-05 10:42 51°14.71 2°29.41 12.3 20 19.1 101800 62
2003-09-05 10:43 51°14.86 2°29.67 11.3 21 19 101800 63
2003-09-05 10:44 51°15.02 2°29.94 11.1 25 19 101800 61
2003-09-05 10:45 51°15.18 2°30.18 11.9 20 19.1 101800 63
2003-09-05 10:46 51°15.36 2°30.43 11 20 19.1 101800 61
2003-09-05 10:47 51°15.53 2°30.66 11.6 22 19.1 101800 62
2003-09-05 10:48 51°15.7 2°30.9 11.2 25 19.1 101790 60
2003-09-05 10:49 51°15.87 2°31.13 11.5 23 19.1 101800 59
2003-09-05 10:50 51°16.04 2°31.36 11.5 22 19.2 101800 61
2003-09-05 10:51 51°16.22 2°31.61 10.4 23 19.2 101800 61
2003-09-05 10:52 51°16.39 2°31.84 11.1 21 19.2 101790 62
2003-09-05 10:53 51°16.56 2°32.07 10.9 20 19.2 101800 61
2003-09-05 10:54 51°16.74 2°32.32 11.6 21 19.2 101800 61
2003-09-05 10:55 51°16.91 2°32.55 10.9 20 19.2 101800 60
2003-09-05 10:56 51°17.09 2°32.77 11.2 22 19.2 101800 60
2003-09-05 10:57 51°17.27 2°33 11 24 19.2 101800 60
2003-09-05 10:58 51°17.44 2°33.22 11.5 23 19.3 101800 61
2003-09-05 10:59 51°17.62 2°33.46 11.3 24 19.3 101800 63
2003-09-05 11:00 51°17.79 2°33.69 11.1 21 19.3 101800 62
2003-09-05 11:01 51°17.96 2°33.92 10.9 27 19.3 101800 62
2003-09-05 11:02 51°18.13 2°34.13 10.4 26 19.3 101800 61
2003-09-05 11:03 51°18.32 2°34.34 11.3 24 19.3 101800 62
2003-09-05 11:04 51°18.51 2°34.52 11.4 33 19.3 101800 61
2003-09-05 11:05 51°18.71 2°34.67 10.8 26 19.2 101800 64
2003-09-05 11:06 51°18.92 2°34.83 10.9 28 19.2 101800 61
2003-09-05 11:07 51°19.11 2°34.98 11.3 31 19.2 101800 65
2003-09-05 11:08 51°19.31 2°35.13 9 40 19.1 101800 65
2003-09-05 11:09 51°19.42 2°35.2 7.4 43 19 101810 66
2003-09-05 11:10 51°19.46 2°35.24 5.5 25 18.9 101820 66
2003-09-05 11:11 51°19.47 2°35.27 5.4 13 18.9 101820 66
2003-09-05 11:12 51°19.48 2°35.29 5.2 10 19 101820 65
2003-09-05 11:13 51°19.48 2°35.31 4.9 8 19.1 101820 65
2003-09-05 11:14 51°19.48 2°35.33 4.9 359 19.2 101830 65
2003-09-05 11:15 51°19.48 2°35.35 5.9 1 19.3 101820 63
2003-09-05 11:16 51°19.47 2°35.39 5.3 359 19.3 101820 63
2003-09-05 11:17 51°19.47 2°35.44 5.4 5 19.5 101820 66
2003-09-05 11:18 51°19.47 2°35.48 5.5 2 19.5 101820 64
2003-09-05 11:19 51°19.47 2°35.53 5.6 4 19.5 101820 64
2003-09-05 11:20 51°19.47 2°35.57 5.1 8 19.5 101820 63
2003-09-05 11:21 51°19.47 2°35.61 5.6 6 19.5 101820 63
2003-09-05 11:22 51°19.47 2°35.65 5.9 8 19.5 101820 63
2003-09-05 11:23 51°19.47 2°35.69 5.1 354 19.6 101820 65
2003-09-05 11:24 51°19.47 2°35.73 5.5 353 19.6 101820 64
2003-09-05 11:25 51°19.46 2°35.76 5.6 351 19.5 101820 64
2003-09-05 11:26 51°19.46 2°35.8 6 344 19.6 101810 64
2003-09-05 11:27 51°19.45 2°35.84 5.6 348 19.7 101820 64
2003-09-05 11:28 51°19.44 2°35.97 10.9 9 19.7 101810 62
2003-09-05 11:29 51°19.5 2°36.29 11.7 10 19.7 101800 63
2003-09-05 11:30 51°19.57 2°36.62 11.8 8 19.6 101790 64
2003-09-05 11:31 51°19.64 2°36.94 12.6 10 19.6 101790 64
2003-09-05 11:32 51°19.71 2°37.27 11.8 6 19.6 101790 65
2003-09-05 11:33 51°19.78 2°37.6 12.2 7 19.5 101790 65
2003-09-05 11:34 51°19.85 2°37.93 12.8 7 19.5 101790 67
2003-09-05 11:35 51°19.92 2°38.25 12.6 6 19.5 101790 66
2003-09-05 11:36 51°19.99 2°38.58 12.7 9 19.4 101800 66
2003-09-05 11:37 51°20.05 2°38.91 13.4 7 19.5 101790 67
2003-09-05 11:38 51°20.11 2°39.25 12.8 6 19.4 101790 66
2003-09-05 11:39 51°20.15 2°39.59 12.2 3 19.4 101780 65
2003-09-05 11:40 51°20.2 2°39.92 12.7 2 19.5 101790 66
2003-09-05 11:41 51°20.24 2°40.26 13.1 357 19.5 101790 65
2003-09-05 11:42 51°20.25 2°40.56 7.2 332 19.5 101780 66
2003-09-05 11:43 51°20.16 2°40.56 2.4 205 19.6 101810 66
2003-09-05 11:44 51°20.17 2°40.4 5 108 19.6 101810 67
2003-09-05 11:45 51°20.18 2°40.37 4.8 105 19.6 101810 67
2003-09-05 11:46 51°20.18 2°40.35 5.2 103 19.6 101800 68
2003-09-05 11:47 51°20.18 2°40.33 5.3 117 19.5 101800 67
2003-09-05 11:48 51°20.18 2°40.31 5.3 121 19.5 101800 69
2003-09-05 11:49 51°20.18 2°40.29 5.4 129 19.5 101800 69
2003-09-05 11:50 51°20.18 2°40.27 6.2 120 19.4 101800 66
2003-09-05 11:51 51°20.19 2°40.24 6 94 19.5 101790 67
2003-09-05 11:52 51°20.25 2°40.19 5.9 83 19.4 101790 68
2003-09-05 11:53 51°20.3 2°40.16 5.1 79 19.3 101790 69
2003-09-05 11:54 51°20.32 2°40.13 5.2 82 19.3 101790 68
2003-09-05 11:55 51°20.34 2°40.1 5.2 81 19.3 101790 69
2003-09-05 11:56 51°20.41 2°40.11 9.1 20 19.2 101790 68
2003-09-05 11:57 51°20.49 2°40.33 12.7 4 19.2 101770 67
2003-09-05 11:58 51°20.53 2°40.66 12.2 357 19.5 101760 70
2003-09-05 11:59 51°20.55 2°41.01 13.1 357 19.5 101750 67
2003-09-05 12:00 51°20.55 2°41.35 12.4 356 19.6 101760 68
2003-09-05 12:01 51°20.54 2°41.68 13.1 355 19.6 101750 67
2003-09-05 12:02 51°20.52 2°42.02 13.2 358 19.7 101760 68
2003-09-05 12:03 51°20.51 2°42.35 13 355 19.7 101760 67
2003-09-05 12:04 51°20.49 2°42.69 12.7 357 19.8 101750 68
2003-09-05 12:05 51°20.47 2°43.03 13.1 356 19.8 101750 68
2003-09-05 12:06 51°20.45 2°43.37 13.2 358 19.8 101750 68
2003-09-05 12:07 51°20.44 2°43.72 13 2 19.8 101740 68
2003-09-05 12:08 51°20.43 2°44.05 13.7 360 19.8 101750 69
2003-09-05 12:09 51°20.42 2°44.39 12.7 360 19.9 101750 71
2003-09-05 12:10 51°20.42 2°44.74 13.5 358 19.8 101740 70
2003-09-05 12:11 51°20.41 2°45.08 13 359 19.8 101740 71
2003-09-05 12:12 51°20.41 2°45.41 12.2 6 19.9 101750 72
2003-09-05 12:13 51°20.44 2°45.58 8.6 15 19.8 101750 71
2003-09-05 12:14 51°20.46 2°45.64 7.8 37 19.8 101760 73
2003-09-05 12:15 51°20.48 2°45.65 6.9 39 19.7 101760 72
2003-09-05 12:16 51°20.5 2°45.66 7.4 22 19.6 101760 73
2003-09-05 12:17 51°20.5 2°45.68 6.4 355 19.6 101760 73
2003-09-05 12:18 51°20.48 2°45.7 7.4 315 19.8 101750 74
2003-09-05 12:19 51°20.45 2°45.72 7.1 44 19.8 101750 73
2003-09-05 12:20 51°20.41 2°45.73 7.5 311 19.8 101750 72
2003-09-05 12:21 51°20.37 2°45.73 7.1 305 19.9 101750 72
2003-09-05 12:22 51°20.34 2°45.73 6.2 302 20 101750 73
2003-09-05 12:23 51°20.31 2°45.71 6.3 297 20.1 101750 72
2003-09-05 12:24 51°20.29 2°45.7 5.8 301 20.2 101750 72
2003-09-05 12:25 51°20.26 2°45.68 6.5 295 20.3 101750 72
2003-09-05 12:26 51°20.24 2°45.66 5.7 292 20.4 101740 72
2003-09-05 12:27 51°20.21 2°45.65 6.5 288 20.4 101750 71
2003-09-05 12:28 51°20.18 2°45.62 5.8 280 20.4 101750 71
2003-09-05 12:29 51°20.16 2°45.6 5.6 272 20.4 101750 71
2003-09-05 12:30 51°20.13 2°45.57 6.4 272 20.4 101750 72
2003-09-05 12:31 51°20.1 2°45.54 5.5 284 20.3 101750 71
2003-09-05 12:32 51°20.01 2°45.6 9.9 341 20.3 101730 71
2003-09-05 12:33 51°19.9 2°45.84 12.4 344 20.3 101720 71
2003-09-05 12:34 51°19.78 2°46.1 12.1 348 20.3 101720 72
2003-09-05 12:35 51°19.64 2°46.38 10.8 346 20.3 101720 72
2003-09-05 12:36 51°19.51 2°46.66 12.1 346 20.3 101720 72
2003-09-05 12:37 51°19.37 2°46.94 11.4 345 20.3 101720 73
2003-09-05 12:38 51°19.26 2°47.22 11.7 347 20.3 101720 74
2003-09-05 12:39 51°19.14 2°47.52 11.9 349 20.2 101720 74
2003-09-05 12:40 51°19.02 2°47.81 12.4 355 20.2 101720 73
2003-09-05 12:41 51°18.9 2°48.11 12.6 356 20.2 101720 72
2003-09-05 12:42 51°18.8 2°48.4 11.6 355 20.2 101710 71
2003-09-05 12:43 51°18.7 2°48.7 10.7 356 20.2 101720 70
2003-09-05 12:44 51°18.59 2°48.99 10.8 356 20.3 101720 71
2003-09-05 12:45 51°18.5 2°49.3 12.1 359 20.3 101720 71
2003-09-05 12:46 51°18.41 2°49.61 12 1 20.2 101710 63
2003-09-05 12:47 51°18.33 2°49.93 11.3 2 20.5 101710 59
2003-09-05 12:48 51°18.25 2°50.25 11.5 356 20.8 101720 58
2003-09-05 12:49 51°18.17 2°50.55 8.3 356 21 101710 60
2003-09-05 12:50 51°18.13 2°50.68 4.6 9 21.1 101720 60
2003-09-05 12:51 51°18.12 2°50.73 4.2 10 21.1 101720 59
2003-09-05 12:52 51°18.1 2°50.76 3.9 345 21.2 101720 61
2003-09-05 12:53 51°18.07 2°50.77 3.3 320 21.3 101720 63
2003-09-05 12:54 51°18.03 2°50.76 3.6 297 21.3 101720 65
2003-09-05 12:55 51°18 2°50.73 3.6 273 21.2 101720 63
2003-09-05 12:56 51°17.97 2°50.69 4 281 21.2 101720 62
2003-09-05 12:57 51°17.93 2°50.65 3.9 279 21.2 101720 61
2003-09-05 12:58 51°17.9 2°50.6 4.7 283 21.3 101710 60
2003-09-05 12:59 51°17.87 2°50.56 5 280 21.4 101720 58
2003-09-05 13:00 51°17.83 2°50.52 4.4 279 21.5 101710 56
2003-09-05 13:01 51°17.8 2°50.48 4.7 281 21.6 101710 55
2003-09-05 13:02 51°17.77 2°50.44 4.8 285 21.8 101710 54
2003-09-05 13:03 51°17.73 2°50.4 5.6 289 21.9 101710 54
2003-09-05 13:04 51°17.7 2°50.36 4.8 287 22.1 101710 53
2003-09-05 13:05 51°17.67 2°50.33 5 284 22.2 101710 54
2003-09-05 13:06 51°17.63 2°50.29 5.5 278 22.3 101710 53
2003-09-05 13:07 51°17.58 2°50.25 7.1 327 22.2 101710 54
2003-09-05 13:08 51°17.53 2°50.32 8.6 17 22.2 101710 49
2003-09-05 13:09 51°17.53 2°50.6 11.2 17 22.2 101690 51
2003-09-05 13:10 51°17.52 2°50.92 11.2 18 22.1 101690 52
2003-09-05 13:11 51°17.5 2°51.26 11.7 19 22 101690 51
2003-09-05 13:12 51°17.48 2°51.6 12.9 17 22 101690 52
2003-09-05 13:13 51°17.43 2°51.93 11.9 10 22 101700 50
2003-09-05 13:14 51°17.31 2°52.22 11.8 3 22 101690 50
2003-09-05 13:15 51°17.18 2°52.5 12.6 3 22 101690 49
2003-09-05 13:16 51°17.05 2°52.78 11.2 5 22 101690 47
2003-09-05 13:17 51°16.93 2°53.06 11.8 7 22.1 101690 48
2003-09-05 13:18 51°16.8 2°53.34 12 9 22.2 101690 47
2003-09-05 13:19 51°16.69 2°53.55 7.8 359 22.2 101690 47
2003-09-05 13:20 51°16.62 2°53.59 7.3 346 22.3 101690 46
2003-09-05 13:21 51°16.57 2°53.59 6.9 351 22.4 101690 44
2003-09-05 13:22 51°16.53 2°53.57 5.3 332 22.6 101690 41
2003-09-05 13:23 51°16.49 2°53.54 5.9 327 22.8 101690 47
2003-09-05 13:24 51°16.46 2°53.51 6.1 321 22.8 101680 43
2003-09-05 13:25 51°16.42 2°53.47 5.7 228 23 101680 40
2003-09-05 13:26 51°16.39 2°53.43 7.3 42 23.1 101680 43
2003-09-05 13:27 51°16.36 2°53.39 6.6 323 23 101670 40
2003-09-05 13:28 51°16.33 2°53.35 6.9 319 23.2 101680 39
2003-09-05 13:29 51°16.3 2°53.31 5.5 227 23.3 101670 41
2003-09-05 13:30 51°16.27 2°53.28 5.7 318 23.3 101670 41
2003-09-05 13:31 51°16.24 2°53.24 5.2 313 23.3 101670 41
2003-09-05 13:32 51°16.21 2°53.2 5 322 23.3 101660 42
2003-09-05 13:33 51°16.18 2°53.17 5.8 313 23.3 101660 42
2003-09-05 13:34 51°16.16 2°53.13 4.2 311 23.3 101660 45
2003-09-05 13:35 51°16.12 2°53.1 4.8 311 23.2 101660 47
2003-09-05 13:36 51°16.09 2°53.06 5 307 23 101660 47
2003-09-05 13:37 51°16.04 2°53.03 7.3 333 22.9 101660 47
2003-09-05 13:38 51°15.87 2°53.01 10.4 349 22.8 101650 48
2003-09-05 13:39 51°15.66 2°53.07 11.5 3 22.7 101640 47
2003-09-05 13:40 51°15.5 2°53.26 11 16 22.8 101640 42
2003-09-05 13:41 51°15.35 2°53.48 10.7 13 22.8 101640 42
2003-09-05 13:42 51°15.2 2°53.7 12.5 12 22.9 101640 42
2003-09-05 13:43 51°15.05 2°53.92 12.5 14 22.9 101630 41
2003-09-05 13:44 51°14.9 2°54.14 11.2 21 22.9 101630 44
2003-09-05 13:45 51°14.75 2°54.38 12.5 19 23 101630 44
2003-09-05 13:46 51°14.62 2°54.62 12.6 17 23 101630 41